Location: Arcabell
(42.4308°N, 1.4823°E)
Time: 23:02:05
(UTC+00:00)

Cosmos 1980 Rocket - Visible Passes

Search period start: 18 November 2025 00:00
Search period end: 28 November 2025 00:00
Orbit: 828 x 849 km, 71.0° (Epoch: 18 November)

Date Brightness Start Highest point End Pass type
(mag) Time Alt. Az. Time Alt. Az. Time Alt. Az.
24 Nov 3.9 06:08:59 10° N 06:13:51 29° NE 06:18:39 10° ESE visible
25 Nov 4.0 05:53:00 10° N 05:57:45 27° NE 06:02:27 10° ESE visible
26 Nov 4.1 05:37:00 10° N 05:41:38 26° NE 05:46:13 10° ESE visible
27 Nov 4.2 05:21:01 10° N 05:25:32 24° NE 05:30:00 10° ESE visible
